GFSCGP_700_spd_057.txt.gz
Wind_Speed
25 24 26 18 18 19 19 22 25 23 19 23 26 30 26 21 26 26 24 24 25 25 22 25 25 25 25 26 26 26 26 26 26 25 25 25 24 24 24 23 22 24 23 21
26 31 21 19 20 22 23 24 27 26 24 28 32 38 34 32 32 32 31 31 29 27 27 28 28 29 29 30 30 29 29 29 28 26 27 28 27 25 25 25 23 25 23 21
25 20 16 17 21 24 24 27 26 26 26 30 33 45 40 36 37 35 35 33 32 30 30 31 33 33 34 34 33 32 31 32 31 28 28 29 29 29 27 25 25 24 23 21
26 28 28 27 29 24 31 26 26 26 25 25 23 18 32 39 39 37 34 33 31 28 28 30 33 34 34 34 35 36 34 33 31 30 30 30 30 27 24 24 25 24 23 22
35 31 30 32 34 27 32 27 26 24 25 27 39 19 27 23 38 38 34 28 22 26 26 24 25 28 30 33 35 34 33 30 31 31 31 31 30 27 27 25 25 25 25 25
42 40 36 32 29 23 23 21 20 24 21 11 43 27 42 36 37 33 24 26 24 18 21 23 26 28 31 33 36 36 32 30 30 32 32 32 30 28 27 26 26 26 26 26
45 48 45 42 35 28 26 20 4 4 4 11 17 19 43 26 27 33 22 22 19 25 29 28 28 27 26 28 32 34 32 30 30 32 32 32 30 29 28 27 26 26 27 26
31 26 45 48 48 35 32 36 18 8 4 6 11 14 22 19 18 35 36 18 19 22 24 26 27 26 24 25 28 29 30 29 30 32 32 32 31 31 30 29 28 28 28 28
16 23 25 25 23 36 32 37 38 31 25 12 22 41 48 47 39 15 14 18 15 18 21 22 23 26 25 22 24 27 29 29 31 32 33 32 33 32 32 31 31 32 33 33
25 18 19 22 27 28 40 26 16 18 2 5 11 21 26 18 23 9 3 8 10 12 13 15 17 19 21 22 23 27 29 30 30 31 33 33 34 34 34 33 34 34 34 33
39 30 18 18 30 37 35 38 21 18 22 5 3 16 23 9 6 6 7 9 14 18 21 21 19 17 19 20 21 23 27 29 31 32 34 35 35 35 34 35 34 35 35 35
30 19 36 37 24 25 37 42 46 23 9 22 22 42 19 14 12 15 16 11 7 12 23 29 28 20 17 20 20 22 25 28 32 34 35 36 36 36 36 36 36 37 37 38
28 21 27 17 26 32 35 43 43 46 28 36 12 43 20 21 22 14 14 14 18 28 34 31 28 20 17 18 22 24 27 29 33 35 37 38 38 39 39 39 39 39 39 39
30 32 28 28 12 13 35 46 45 44 37 49 48 60 44 24 21 22 20 32 42 46 37 31 29 30 24 18 19 25 27 30 33 36 38 39 39 40 40 40 40 40 39 40
38 38 40 47 42 33 26 23 36 51 62 31 70 48 67 57 52 47 48 43 43 40 38 32 30 29 29 27 24 22 26 30 34 37 39 40 40 40 42 43 43 41 42 42
39 40 38 49 46 44 46 42 42 46 46 54 62 60 62 56 54 49 48 47 46 47 45 42 32 32 29 28 26 27 26 25 32 37 40 42 44 44 44 45 44 44 44 42
39 42 40 39 47 36 31 68 66 58 61 58 59 74 59 59 56 53 47 49 54 54 50 43 38 37 38 39 35 31 29 29 30 37 42 43 45 45 45 45 46 46 45 47
48 42 37 36 27 14 56 56 53 56 61 62 63 64 60 62 56 49 51 58 49 44 47 45 40 39 39 42 39 38 37 32 33 36 40 43 45 46 46 46 46 47 49 50
47 41 33 30 35 37 33 53 48 40 53 49 57 54 52 47 50 46 47 37 39 41 39 40 39 39 42 43 41 44 41 37 36 36 38 41 43 44 45 45 49 50 50 55
37 49 46 27 9 12 47 44 42 30 36 51 41 42 41 37 42 47 39 38 38 41 41 38 36 37 37 37 37 40 45 44 35 32 35 37 38 40 45 47 47 49 56 52
22 37 45 43 29 22 41 36 21 22 37 39 25 28 30 37 36 33 38 31 32 32 35 36 36 36 34 34 33 35 38 37 35 34 34 37 39 44 46 49 52 57 52 52
33 22 23 31 27 25 37 28 27 28 29 29 25 17 21 27 30 31 30 26 26 29 33 35 34 31 29 31 33 31 31 31 32 34 37 41 44 48 51 49 43 42 44 33
26 30 21 23 18 13 21 26 22 26 30 31 32 30 28 30 28 29 30 30 28 27 28 28 26 25 25 24 24 25 26 27 30 32 31 30 28 25 24 25 26 27 28 30
28 29 29 32 39 38 34 31 33 33 34 35 36 32 30 33 35 35 33 33 29 24 20 19 18 17 16 17 20 23 26 30 30 24 21 22 22 23 25 25 24 23 24 26
25 26 31 35 34 33 30 32 33 34 35 35 38 42 40 26 20 21 22 22 20 17 16 16 17 18 18 18 18 18 17 17 18 19 20 20 20 21 21 21 23 25 27 29
26 27 29 29 30 36 37 35 34 36 40 40 29 26 27 23 21 21 21 22 21 20 18 15 13 13 14 15 15 15 16 16 17 18 19 20 22 23 25 26 26 26 27 29

GFSCGP_700_spd_060.txt.gz
Wind_Speed
24 25 25 17 17 19 20 20 22 21 21 25 26 29 26 22 26 26 26 26 25 24 18 23 25 26 26 26 25 25 26 27 27 27 27 25 25 25 26 25 24 24 24 22
28 30 21 21 22 23 23 23 24 22 22 24 27 35 32 31 30 28 29 30 29 29 29 28 29 29 27 28 29 29 29 29 29 29 29 27 27 27 28 27 27 26 26 26
24 18 14 21 22 24 24 25 22 22 24 31 34 45 38 33 32 31 30 28 30 30 28 28 30 31 32 32 32 32 32 33 32 32 32 31 30 30 31 30 29 28 29 28
23 26 26 26 27 20 26 23 23 23 21 24 21 14 44 40 36 32 29 27 24 22 25 27 29 33 33 32 34 35 36 36 36 35 35 34 33 31 30 30 30 29 29 29
36 31 30 32 32 26 30 27 24 22 22 30 31 13 36 36 44 39 34 27 22 18 20 26 33 31 33 34 34 36 38 39 37 36 35 35 35 32 33 33 31 29 30 29
41 39 34 29 27 22 26 20 16 18 19 13 28 21 47 47 41 29 23 26 19 18 23 26 23 23 27 31 32 36 40 39 38 36 35 34 34 33 35 33 31 31 30 30
44 46 44 40 35 28 24 19 4 4 2 12 6 16 44 42 30 30 23 22 23 25 22 21 24 29 29 30 32 34 38 39 38 37 36 34 34 34 34 33 31 31 31 30
29 27 45 48 48 34 30 33 17 8 4 7 15 15 25 30 30 34 37 28 11 16 20 23 25 27 27 29 31 31 32 34 36 37 35 34 34 34 35 33 33 31 30 30
14 23 26 25 22 35 32 36 30 29 27 11 20 42 42 37 24 17 9 13 17 13 16 20 21 18 20 26 30 30 29 31 34 35 35 34 34 34 34 33 33 32 32 33
27 22 19 22 27 26 38 22 15 17 3 5 13 18 24 21 21 12 15 9 12 13 10 8 13 16 17 20 24 29 29 30 32 34 34 34 34 34 34 34 34 34 36 36
40 31 19 19 30 35 32 36 21 15 18 5 3 21 27 19 15 6 10 6 9 14 12 8 21 28 27 22 21 25 28 29 32 35 35 35 34 34 35 35 36 37 38 38
28 21 37 40 23 26 33 41 46 22 9 16 20 40 9 11 10 14 12 13 16 16 13 19 35 31 30 24 22 20 24 25 27 30 33 34 36 36 37 37 38 39 40 41
29 25 17 12 21 32 36 40 39 43 31 33 15 40 9 14 22 18 18 14 15 21 22 34 38 28 24 24 22 21 21 23 26 29 32 34 37 38 38 39 40 42 43 44
37 31 30 26 13 10 30 43 41 43 33 52 39 71 56 25 16 13 14 17 20 27 37 43 32 28 28 27 27 25 24 22 24 28 31 34 36 38 39 39 41 43 44 44
39 37 37 43 42 40 34 22 22 46 60 32 68 48 69 57 53 44 46 45 43 45 46 39 35 36 33 31 29 27 24 25 23 26 29 32 36 39 40 42 43 44 45 44
45 39 40 50 49 45 46 44 48 41 40 51 59 59 59 54 53 50 48 44 45 44 42 43 42 43 42 36 31 29 29 27 27 28 27 30 36 40 42 43 44 45 46 46
47 46 39 38 46 29 27 56 55 51 53 53 54 63 54 55 55 53 54 56 54 50 45 42 45 48 48 42 36 35 33 35 32 31 31 30 32 38 41 43 44 46 47 47
29 48 44 35 23 13 48 50 46 47 50 53 57 60 57 60 56 55 49 52 50 42 40 42 45 45 42 40 40 41 41 39 37 35 33 34 36 38 41 43 44 46 49 48
49 33 31 29 34 30 33 48 43 37 46 46 49 46 47 39 41 42 36 37 40 38 39 42 42 43 42 38 37 41 44 43 43 40 40 34 35 38 39 42 44 47 48 48
44 45 34 19 9 7 24 35 41 30 34 42 38 43 41 39 41 41 35 35 33 34 35 37 40 43 40 38 35 36 39 40 41 41 38 37 35 36 37 39 41 44 45 45
29 37 45 36 28 22 38 35 13 17 23 29 13 21 31 33 32 30 33 33 31 33 35 37 36 34 34 34 34 34 35 35 33 35 35 35 36 36 35 38 40 42 44 45
24 18 21 23 19 11 27 33 30 33 30 32 32 30 30 28 26 26 30 35 33 27 28 30 30 29 29 31 31 30 30 33 32 32 33 32 33 33 37 40 42 42 46 48
45 43 35 28 25 30 29 30 27 18 24 24 24 27 33 36 37 37 34 33 32 30 28 29 31 32 32 30 27 27 28 29 29 28 27 26 28 30 31 38 41 44 43 38
24 33 40 33 37 33 26 27 32 29 27 26 28 31 33 34 33 34 35 36 39 38 35 31 29 25 24 21 20 18 17 16 17 18 19 19 16 13 13 14 15 17 19 19
30 27 23 30 32 30 29 29 30 26 27 29 32 35 36 37 35 36 40 39 37 30 25 23 19 17 16 15 15 16 18 18 17 16 16 15 15 15 16 16 17 18 19 21
17 23 23 27 25 26 31 33 28 29 31 31 35 38 40 40 40 37 28 23 20 18 18 17 16 16 14 13 13 13 13 14 13 11 11 12 13 14 15 16 18 19 20 23

GFSCGP_700_spd_063.txt.gz
Wind_Speed
22 24 24 18 19 19 18 18 19 18 19 25 26 28 23 21 26 23 23 24 24 24 18 24 26 27 27 27 27 26 26 26 28 29 30 29 27 26 26 25 26 27 26 27
25 28 20 22 22 21 22 22 23 20 21 24 27 34 30 28 27 25 25 26 25 25 24 25 28 30 31 29 29 29 28 28 28 30 31 32 30 29 28 27 27 26 28 28
23 22 15 25 28 28 26 26 20 20 22 29 34 43 36 30 28 25 25 24 23 22 21 23 29 33 35 33 30 30 31 31 32 33 34 34 34 32 31 29 29 30 31 31
21 22 21 24 23 16 22 19 18 19 19 19 27 14 41 36 34 32 25 22 22 25 25 24 26 31 34 34 35 35 36 36 36 36 37 38 37 34 32 32 31 31 33 32
31 27 27 29 28 23 27 24 22 21 20 26 32 19 36 40 42 37 29 24 20 21 24 27 32 34 35 38 39 38 39 39 40 40 39 39 40 37 35 37 36 35 34 33
37 34 30 28 27 22 26 22 16 15 15 11 25 16 49 37 34 26 21 25 17 20 21 19 23 30 31 34 37 36 38 39 40 42 42 41 41 38 37 37 37 36 36 35
41 42 40 38 33 26 24 20 4 4 3 10 9 16 52 33 32 32 23 25 22 20 22 24 24 22 21 22 26 30 34 37 35 38 42 43 41 39 37 38 38 37 36 34
27 26 43 44 44 36 32 34 16 8 4 4 8 18 29 26 35 35 33 13 14 15 21 21 25 27 28 28 30 31 33 35 37 37 38 41 40 40 39 38 37 36 35 34
14 22 24 20 22 36 31 37 35 24 23 9 20 43 53 44 25 13 18 23 21 19 20 21 20 16 14 14 18 21 25 31 34 35 36 38 39 40 38 36 36 36 36 34
27 22 21 16 24 28 39 23 15 17 4 4 13 20 30 22 29 11 6 13 20 22 21 14 10 6 12 19 24 24 22 23 28 35 36 38 39 39 38 37 36 36 36 37
37 29 18 18 28 33 32 37 20 16 18 5 2 17 23 19 18 16 20 16 14 12 14 14 17 10 25 26 23 21 21 23 26 31 34 37 38 38 38 37 38 37 38 38
25 17 32 40 29 23 34 42 45 21 10 16 21 43 18 17 12 5 10 15 10 12 18 20 23 20 30 33 22 18 18 20 22 26 31 35 37 38 38 39 38 38 38 39
26 19 16 14 24 34 36 40 43 44 32 30 17 44 27 11 23 22 19 19 16 22 20 22 23 28 38 36 26 25 23 21 22 23 25 28 33 36 38 39 38 38 38 40
35 31 29 29 18 13 35 51 46 42 32 52 38 68 57 38 21 18 21 22 27 23 18 22 31 45 41 35 31 30 28 26 24 25 23 25 28 32 35 36 37 39 40 42
41 42 44 53 47 34 28 24 27 43 56 37 63 48 72 55 53 46 40 38 34 33 37 42 49 39 37 36 38 36 34 29 28 28 27 25 25 29 32 35 38 40 42 43
45 43 46 54 58 51 51 44 40 37 42 42 52 58 59 51 50 50 46 39 37 38 40 42 41 46 40 40 42 40 39 36 31 31 28 26 27 27 30 34 39 41 42 43
25 40 38 40 54 43 30 55 57 58 55 54 54 61 51 49 46 42 41 44 45 47 45 45 47 45 45 46 44 42 41 38 37 36 33 32 30 31 30 32 36 40 42 43
52 42 32 33 38 16 50 56 55 54 56 57 60 56 52 50 46 45 37 40 35 36 39 38 37 39 40 42 42 40 38 36 38 39 38 37 34 33 33 33 35 39 42 42
53 49 32 16 15 26 28 47 48 41 54 46 45 49 51 42 43 39 36 35 35 35 34 33 34 36 36 35 37 38 38 37 35 39 41 39 36 35 35 35 35 36 39 41
34 40 40 31 20 13 40 39 48 33 33 41 36 38 39 32 35 29 25 28 30 32 34 35 35 35 34 34 34 35 34 34 33 35 38 38 39 38 36 38 37 35 36 39
20 30 41 41 30 23 31 18 8 18 16 23 16 17 18 25 28 33 32 27 26 26 27 31 33 35 35 35 34 32 30 30 33 35 37 40 40 38 37 39 39 37 38 41
17 13 26 24 17 14 28 27 26 28 24 22 27 31 32 26 21 22 27 28 30 33 34 31 31 31 30 27 26 26 26 27 29 31 33 34 33 33 35 38 38 38 40 40
33 34 32 24 12 14 19 37 38 38 27 21 22 25 28 27 26 27 30 33 34 32 31 29 29 31 31 30 31 32 32 29 29 28 28 29 29 30 30 30 32 34 37 37
40 39 35 35 39 42 42 29 28 21 25 25 23 26 27 29 32 33 33 33 34 32 33 33 31 32 32 32 30 28 25 22 20 20 19 18 18 20 21 18 11 9 9 11
40 35 33 30 28 33 29 28 23 28 28 26 29 30 31 31 32 32 31 32 33 33 35 36 27 22 20 19 18 17 16 16 16 15 14 13 11 10 11 12 12 11 11 12
41 42 41 37 35 24 23 24 25 28 25 31 30 32 32 32 34 34 34 35 35 36 37 30 24 22 20 19 18 16 14 11 8 9 9 8 7 6 5 6 7 8 11 12

GFSCGP_700_spd_069.txt.gz
Wind_Speed
21 20 18 17 18 17 17 9 12 10 18 20 24 30 30 27 28 31 27 24 25 25 21 23 26 27 29 31 34 34 34 33 34 33 32 32 32 33 32 33 31 30 30 30
22 26 21 20 22 21 21 18 19 19 25 24 26 36 34 32 30 29 29 26 26 24 23 26 28 29 31 31 33 35 35 35 35 34 33 33 33 35 34 35 35 35 34 33
24 14 20 26 25 24 24 22 18 19 20 27 29 39 37 29 32 31 29 28 27 23 22 27 31 29 32 34 35 36 36 36 37 35 36 36 35 35 35 35 36 37 37 36
21 24 25 23 24 22 23 20 24 25 23 15 14 16 29 27 30 33 28 28 26 23 25 28 30 30 30 34 36 39 40 40 39 38 39 38 36 36 35 36 36 36 39 39
19 21 24 27 28 23 19 18 18 17 18 18 22 15 23 22 27 30 27 24 21 20 18 23 28 34 34 35 38 41 43 43 43 43 43 43 41 40 41 40 39 39 41 42
30 23 21 22 25 24 25 22 20 17 12 14 25 24 30 26 23 23 19 18 15 20 16 23 27 30 28 32 36 39 41 41 44 45 46 47 45 45 46 45 43 42 42 43
31 39 35 31 26 24 22 9 6 7 7 12 12 14 35 21 20 23 19 17 27 22 34 35 33 29 27 30 31 32 30 31 36 41 40 42 44 45 47 45 46 47 46 45
25 19 32 37 41 26 31 25 16 9 8 14 14 17 27 21 20 17 16 22 35 38 21 15 21 26 31 34 30 31 29 30 28 28 28 29 33 38 42 42 44 46 47 46
21 21 18 20 21 32 21 28 31 26 29 10 22 41 44 40 38 27 23 16 14 16 22 25 26 33 36 33 31 27 22 19 20 22 26 28 32 36 40 39 40 43 45 46
22 28 22 21 23 28 36 16 17 18 6 12 23 32 32 30 33 34 34 30 29 27 21 24 30 33 35 26 23 18 13 10 14 20 25 29 32 34 36 38 41 43 43 45
28 20 13 21 28 26 34 33 18 18 23 7 12 21 32 30 25 17 11 6 13 21 20 22 31 32 27 24 24 22 18 17 21 23 23 26 30 33 35 37 38 39 41 42
19 15 26 29 20 21 26 34 37 28 21 17 25 40 39 25 26 21 20 22 22 31 30 22 24 26 27 28 28 30 30 29 29 30 29 29 32 34 34 34 34 36 38 39
15 13 10 12 20 26 32 36 35 33 32 25 21 30 40 29 24 22 23 25 26 21 11 8 12 18 23 28 33 36 38 37 36 37 36 32 32 33 34 34 33 33 35 38
25 22 20 19 10 3 17 31 36 38 29 42 41 50 58 53 42 40 37 29 18 20 18 13 15 17 28 36 38 40 40 42 43 41 39 41 39 39 37 36 35 35 36 37
21 24 31 39 36 37 34 23 15 30 43 42 54 43 54 49 45 44 47 49 51 48 46 47 53 50 47 42 43 45 47 50 50 46 43 44 46 47 41 38 37 37 37 36
23 28 30 39 45 32 36 42 44 48 46 41 45 50 57 56 54 51 51 50 53 44 39 40 41 42 46 44 48 54 57 57 58 59 57 55 52 49 46 40 37 38 37 37
22 24 21 28 32 22 26 51 48 48 50 47 45 58 54 54 53 56 56 48 51 53 50 49 44 44 48 50 49 52 56 58 61 61 61 57 53 49 46 44 39 40 40 40
39 36 24 23 32 12 21 22 24 25 35 38 43 47 51 50 49 47 43 47 51 54 52 49 47 45 43 45 45 46 46 46 47 47 45 44 45 47 45 43 41 41 42 42
36 33 29 29 39 37 45 38 22 19 35 26 25 30 38 39 36 41 39 39 40 37 39 41 42 42 43 42 39 38 38 41 41 40 39 40 42 43 43 42 42 42 42 43
28 30 36 29 20 15 32 33 27 23 29 28 30 35 38 36 37 36 31 31 32 29 29 29 28 29 32 35 37 37 36 36 36 36 37 38 38 39 41 43 44 44 44 45
20 20 27 36 29 25 42 49 42 28 31 33 27 25 28 30 28 25 22 20 22 25 24 26 28 30 31 33 36 38 40 41 38 36 36 36 37 37 39 41 42 42 43 45
24 18 24 25 21 21 30 29 22 20 23 22 22 23 23 25 29 28 24 27 31 31 33 32 34 35 34 35 36 35 35 33 32 32 32 31 31 31 31 32 35 39 41 44
34 42 34 28 24 13 18 25 30 34 41 39 33 33 31 30 32 34 28 31 41 36 31 34 35 36 40 42 39 36 35 35 37 37 37 38 38 38 38 38 39 39 39 41
36 32 35 39 46 51 59 51 50 40 37 38 37 34 33 35 38 33 38 45 40 38 36 37 37 37 39 39 37 35 33 33 34 34 35 36 36 37 36 36 36 35 36 37
27 23 32 35 41 41 42 41 40 30 32 31 29 33 33 34 33 31 29 33 37 40 33 34 35 34 37 38 38 36 34 33 33 33 33 32 31 30 29 28 26 26 27 22
47 47 44 47 43 38 37 35 40 38 42 40 36 28 27 27 31 34 33 27 28 29 33 34 36 37 38 37 36 32 30 32 32 32 31 27 22 18 16 14 13 12 11 12

GFSCGP_700_spd_072.txt.gz
Wind_Speed
16 17 20 18 19 18 18 14 6 9 13 21 23 28 28 26 25 27 26 24 23 23 21 21 20 20 25 26 28 29 30 29 31 33 33 32 30 30 30 29 30 30 31 33
19 23 18 13 16 17 21 20 20 20 21 27 28 33 32 32 31 27 27 27 26 24 22 22 25 24 24 26 29 30 31 32 31 34 33 33 33 32 32 31 32 33 33 36
22 9 14 23 22 20 22 21 19 19 20 25 29 38 37 29 29 30 30 27 25 24 22 22 24 27 25 27 29 31 32 34 34 34 35 34 35 35 34 31 31 33 34 37
20 23 19 16 19 19 22 20 17 19 21 15 15 12 37 22 23 28 25 23 23 22 24 26 28 31 33 26 27 31 33 37 39 37 38 38 37 37 34 33 32 33 35 38
17 20 24 27 26 20 18 17 16 21 20 20 25 17 26 21 23 25 22 21 19 21 22 22 19 20 26 26 23 29 34 38 40 40 40 41 40 40 39 37 37 36 37 39
27 18 18 21 21 21 22 16 15 15 15 13 20 20 22 21 18 10 13 12 15 17 11 16 21 23 31 32 26 26 31 34 36 36 36 38 39 40 42 44 43 40 40 42
26 31 24 21 20 19 20 10 3 3 4 8 3 12 30 10 9 13 19 24 21 18 24 29 23 35 37 29 25 27 28 29 29 29 30 31 33 35 38 41 43 42 42 44
25 17 31 33 35 28 24 23 12 7 4 5 7 17 23 12 9 14 15 13 15 24 33 37 28 17 20 22 26 29 29 27 29 28 25 26 27 26 27 31 34 35 39 42
15 17 15 18 17 29 29 29 31 25 27 10 14 34 38 34 35 30 25 11 15 12 16 19 23 24 21 25 30 32 29 29 25 23 23 23 24 25 26 30 32 34 37 40
21 14 17 20 20 21 34 11 13 16 3 5 16 24 30 27 19 35 33 27 25 25 25 26 22 23 24 27 33 25 23 21 20 19 19 18 19 20 23 27 32 35 36 37
29 22 11 20 23 26 28 36 16 12 21 5 5 15 31 24 15 7 3 7 12 17 17 20 24 23 31 35 29 22 21 20 17 19 21 22 23 23 25 27 31 35 35 35
22 14 22 24 12 14 26 32 37 21 10 17 28 41 38 21 26 30 31 30 23 25 28 28 31 34 28 18 21 26 26 24 26 27 27 30 32 34 32 30 32 35 38 36
12 12 4 8 18 26 27 29 30 31 35 34 18 37 37 34 21 16 14 12 27 40 30 17 15 14 14 17 18 24 28 32 36 38 36 37 39 40 40 40 39 38 40 40
15 18 18 16 5 2 11 16 26 25 27 39 35 51 58 51 43 44 47 47 36 29 28 29 20 18 22 28 31 35 39 43 46 48 48 47 48 47 51 49 46 43 41 41
21 23 26 33 35 35 34 25 21 23 32 31 50 39 58 52 48 45 40 40 39 39 40 41 39 46 45 44 45 49 50 52 53 53 53 51 52 54 53 53 52 47 44 41
25 22 20 31 31 24 33 39 40 37 41 44 37 40 50 53 50 49 51 46 45 44 46 47 45 42 43 45 47 45 50 49 49 50 52 54 59 60 61 60 57 51 46 44
20 17 12 22 22 14 18 42 34 34 36 42 45 52 54 54 56 55 49 46 49 49 44 43 43 44 48 51 51 49 46 47 49 49 49 50 51 52 53 53 50 46 42 43
31 27 17 21 20 8 28 28 29 30 25 23 26 28 29 31 35 38 27 35 40 41 42 42 43 43 43 47 46 46 43 41 41 42 41 41 41 42 42 42 41 40 40 41
32 28 17 10 20 27 35 40 33 28 30 22 32 38 39 42 40 36 40 45 46 45 43 43 42 40 38 38 38 39 37 36 35 36 38 38 37 38 39 40 39 39 39 40
24 33 29 21 9 6 25 34 22 18 25 30 33 34 39 44 42 47 48 39 39 40 42 35 29 28 28 29 29 30 31 33 35 35 35 36 37 37 37 37 37 38 39 40
18 25 35 36 26 19 34 36 33 25 31 36 28 28 33 34 36 45 39 37 29 26 27 25 25 27 30 31 33 34 35 34 35 38 38 35 34 34 36 37 37 37 37 36
22 17 23 28 22 19 31 32 34 25 24 25 24 29 28 28 33 31 33 29 30 36 31 29 31 36 35 38 40 38 35 37 39 38 38 37 37 36 36 36 36 36 36 35
35 34 24 22 21 22 24 26 32 35 32 32 41 41 40 40 37 30 30 29 32 34 31 38 40 39 39 38 38 37 38 37 39 40 37 36 37 38 38 38 38 38 39 39
32 30 31 34 42 43 41 39 42 47 46 43 40 37 37 36 34 34 35 36 36 35 37 41 44 42 39 40 42 44 42 38 37 37 37 37 36 36 36 36 36 36 36 36
32 25 32 36 41 40 37 35 32 36 38 38 34 30 34 32 33 34 37 37 36 38 44 40 35 33 37 41 43 40 39 38 39 38 38 37 34 32 34 35 33 32 32 31
41 42 37 42 41 31 34 40 37 29 28 28 34 37 35 34 36 36 34 34 33 33 36 37 35 35 38 37 37 38 38 37 37 36 35 34 33 33 35 34 31 27 26 17

GFSCGP_700_spd_075.txt.gz
Wind_Speed
18 19 23 18 17 15 16 9 10 6 6 13 21 27 24 20 22 25 24 22 21 22 16 17 16 15 18 20 20 22 23 23 24 24 26 27 27 27 26 27 27 28 30 31
21 22 14 12 14 14 16 19 19 15 16 21 25 33 30 26 26 25 24 24 24 22 20 18 19 22 20 21 23 23 25 25 26 27 26 28 29 29 30 29 31 30 31 32
21 9 20 18 16 17 17 18 16 16 19 24 29 38 33 27 24 22 21 20 21 21 20 20 21 22 20 20 20 23 26 27 29 29 29 30 31 31 32 31 30 29 30 32
18 23 14 18 23 20 20 19 17 17 18 12 19 14 37 32 27 25 23 20 18 20 22 24 24 25 24 18 18 21 26 27 29 30 32 34 34 33 30 30 30 30 31 34
18 18 23 24 20 17 16 12 12 13 19 21 25 18 28 27 35 29 20 14 20 16 18 21 21 18 17 15 17 19 21 25 26 29 30 31 33 33 34 33 32 33 34 35
25 14 15 19 23 23 20 16 13 13 14 9 21 18 8 15 10 4 3 4 6 14 17 14 12 17 22 23 25 28 23 25 26 27 29 28 29 29 31 32 34 35 36 38
23 24 23 20 19 19 19 13 3 3 2 7 3 13 24 6 11 5 6 12 23 24 20 23 25 23 26 29 29 21 20 20 23 26 25 24 24 26 27 28 31 34 37 38
27 15 28 25 26 23 21 22 11 7 4 4 9 12 8 3 7 13 15 10 14 20 22 23 29 31 27 20 23 21 21 22 23 23 22 25 24 23 25 25 24 25 28 29
17 17 15 22 26 29 25 29 24 20 15 7 12 24 23 26 19 19 20 21 22 25 27 25 28 29 25 20 20 19 22 24 25 25 25 23 22 21 20 20 21 20 21 25
22 8 17 21 22 24 32 23 14 13 3 4 10 18 24 12 27 26 23 18 13 20 23 16 18 18 19 22 24 25 28 29 27 24 21 20 20 18 17 17 17 19 20 22
32 24 12 20 23 29 26 26 14 10 16 4 2 14 20 13 11 8 5 11 14 16 19 22 25 30 31 36 34 31 25 22 24 24 21 19 18 18 20 23 26 28 29 28
28 23 21 18 12 19 23 28 34 20 6 16 23 36 15 15 12 18 20 22 22 17 18 19 22 21 21 21 20 13 16 18 21 22 21 22 25 28 30 33 35 37 37 36
27 15 7 7 16 20 17 19 23 25 29 35 7 43 16 19 20 17 18 21 22 32 40 23 21 23 25 23 18 17 19 24 30 35 36 37 38 39 41 43 45 44 44 39
24 16 13 11 7 7 15 25 24 25 24 27 37 50 57 47 47 43 42 42 44 42 34 30 29 32 34 39 37 36 36 37 40 43 45 48 48 50 50 46 48 50 49 48
20 19 19 20 20 22 22 18 16 18 29 22 40 32 55 44 44 41 35 43 50 44 45 44 41 43 42 39 44 49 49 48 48 51 52 51 49 49 51 50 48 49 50 49
20 17 19 25 26 26 26 33 34 34 41 36 42 46 49 49 46 41 46 47 46 47 49 48 46 45 47 46 42 44 49 54 53 54 52 50 53 54 53 49 48 47 48 48
24 20 14 12 10 10 18 39 34 34 30 23 26 27 26 30 33 34 35 37 38 40 37 32 35 37 38 40 41 42 44 45 48 51 52 51 52 48 44 43 44 45 44 43
22 19 13 8 9 2 25 26 21 24 25 21 24 27 32 36 39 35 30 36 44 43 44 46 47 42 40 41 42 40 39 41 42 39 40 41 42 43 41 40 39 41 43 42
30 29 16 9 12 17 26 28 23 21 29 31 30 25 27 32 32 35 47 50 48 49 50 47 48 45 41 37 35 33 29 31 32 31 31 32 33 36 38 37 38 39 41 41
38 31 26 16 7 9 25 24 23 14 22 28 28 29 30 35 38 42 44 43 41 40 45 45 41 36 35 29 29 29 29 28 30 33 35 36 34 34 37 41 41 40 41 41
26 28 33 31 18 15 34 30 26 21 29 26 29 32 36 37 36 43 44 44 41 42 45 39 36 40 36 33 29 33 33 35 37 38 38 38 39 35 33 37 38 38 37 37
24 22 27 30 15 18 38 33 29 24 23 23 26 30 35 35 36 39 41 42 36 30 28 25 28 31 32 36 35 37 37 38 39 38 36 38 38 37 35 34 34 36 39 39
23 30 26 24 23 26 18 21 22 22 21 26 31 34 38 42 43 43 41 39 41 39 41 41 38 37 37 38 38 33 36 38 38 41 43 42 36 36 37 37 36 37 37 37
32 33 34 33 33 28 26 25 27 32 39 40 42 42 36 39 37 37 31 33 35 36 38 39 37 39 41 40 40 41 38 36 39 42 44 45 42 36 33 34 34 34 36 35
34 33 38 38 41 41 39 38 37 37 37 33 31 37 31 31 34 37 40 40 39 39 37 36 36 37 38 41 42 41 42 42 41 35 36 40 41 40 35 34 34 34 33 31
38 39 33 33 31 29 33 36 34 35 38 38 38 38 34 34 35 37 39 40 40 40 40 41 41 43 44 42 40 39 40 45 43 41 41 37 38 39 36 36 34 31 27 25

GFSCGP_700_spd_078.txt.gz
Wind_Speed
22 25 27 22 19 17 14 13 11 8 10 14 17 22 20 17 19 19 20 20 20 20 15 17 17 17 18 18 19 18 19 17 19 21 21 22 23 23 24 23 24 25 24 24
22 25 16 17 18 18 18 17 15 12 14 17 20 26 25 24 22 21 20 19 19 21 19 18 19 22 21 20 20 21 20 21 20 22 21 24 25 26 26 26 27 28 29 27
24 12 22 20 19 19 18 18 16 15 16 20 24 34 29 25 21 17 17 15 11 11 15 19 21 23 23 22 19 18 20 21 22 24 25 26 28 29 28 27 28 28 30 30
20 22 15 25 22 19 18 16 15 15 15 13 14 11 28 26 22 15 10 10 10 13 17 18 20 21 23 22 24 21 20 22 23 26 26 26 29 30 28 29 29 29 31 32
19 20 23 19 21 21 19 17 15 15 15 19 22 13 14 17 21 12 10 13 14 12 8 10 12 15 17 15 12 14 16 19 21 24 26 27 26 27 29 31 32 32 33 35
26 18 18 25 22 17 16 13 11 13 13 9 18 17 6 5 0 7 7 4 3 7 13 12 13 13 14 15 17 21 24 24 23 25 25 24 24 26 27 27 31 33 34 38
22 23 20 19 21 24 21 14 3 3 2 5 4 10 16 7 9 6 4 7 12 17 20 18 17 21 24 26 26 24 19 20 18 21 22 23 23 24 23 24 26 28 32 35
24 15 29 27 25 22 23 24 10 7 4 4 7 8 5 13 14 15 13 13 14 16 16 16 20 23 23 25 20 19 21 20 20 21 23 25 24 25 26 25 25 25 25 26
23 24 17 30 27 24 25 30 23 12 6 4 9 13 5 10 12 12 12 19 17 17 19 20 18 16 15 14 17 19 18 19 21 22 23 24 24 24 25 26 25 23 21 21
21 11 21 25 27 31 29 22 15 13 2 4 8 13 16 9 10 14 21 19 15 10 12 12 12 16 18 18 21 23 27 27 24 21 23 22 21 22 23 22 20 18 17 18
34 22 11 22 29 32 31 28 18 14 15 5 1 7 5 7 16 12 11 8 6 8 12 15 17 16 17 17 18 19 21 23 16 17 19 21 22 22 22 20 19 21 24 25
38 22 20 22 23 24 27 31 35 20 8 19 15 21 6 9 18 14 10 10 12 17 20 25 30 28 29 27 26 24 24 20 19 22 24 25 25 25 25 27 30 33 35 36
30 20 12 10 15 15 21 26 27 34 21 25 8 14 10 23 17 15 16 19 23 24 32 35 31 32 33 31 35 35 37 31 29 31 33 35 36 38 39 41 42 44 46 47
28 21 20 17 10 20 28 24 28 28 22 28 40 42 28 21 24 25 33 38 42 42 41 41 38 35 31 34 35 37 37 39 41 43 45 45 44 47 48 50 51 51 51 53
23 21 22 15 9 12 14 23 25 26 24 19 27 37 44 41 36 38 41 41 39 39 39 39 41 41 38 37 36 37 39 40 42 47 51 53 54 53 54 53 51 49 48 46
25 15 19 18 16 19 23 25 24 26 28 31 30 44 46 38 38 34 30 28 29 31 31 28 25 26 24 26 28 29 31 34 36 40 44 48 52 55 55 53 54 56 52 47
26 27 23 10 16 15 21 38 36 37 36 34 37 41 31 32 30 28 30 35 36 33 32 33 36 41 42 41 42 44 40 37 38 39 40 43 46 47 47 45 46 48 49 48
24 24 16 8 13 4 25 18 15 21 26 25 28 30 30 31 35 34 33 36 35 37 41 45 45 44 44 46 45 45 45 43 39 37 37 39 40 39 38 39 40 41 42 42
23 23 12 8 19 19 24 16 18 22 22 22 27 26 30 32 32 32 34 39 40 44 45 44 45 45 44 46 50 50 41 39 37 33 33 33 34 35 37 38 37 38 41 45
29 26 24 15 7 9 30 18 15 18 27 24 25 26 27 27 30 29 31 36 39 42 46 47 46 46 48 48 45 44 42 42 41 39 37 36 37 39 40 42 43 42 40 40
36 32 32 28 14 19 39 29 11 15 27 24 23 22 25 27 28 32 34 35 39 42 44 45 45 43 40 34 35 30 31 35 37 38 33 37 38 40 37 38 40 42 43 41
30 26 27 28 19 20 39 32 26 26 26 25 25 26 28 30 32 34 36 40 43 46 47 47 47 45 44 44 45 43 42 38 39 39 37 40 39 41 45 44 39 41 42 43
23 31 25 23 30 33 23 21 21 19 23 26 29 29 31 33 34 38 43 44 46 50 52 46 43 43 42 45 46 45 41 43 46 43 42 42 36 36 41 44 43 40 41 44
30 30 30 29 34 33 30 29 23 21 23 25 28 33 37 40 44 47 44 42 44 45 45 45 45 45 45 44 43 42 41 42 44 44 46 48 45 41 40 41 37 38 36 40
31 31 35 35 38 35 31 29 32 35 38 40 42 42 41 38 40 41 44 46 45 45 44 43 45 44 42 43 45 46 47 47 45 44 43 43 46 44 40 38 41 39 38 36
40 39 39 39 35 34 36 38 40 43 43 41 43 44 46 47 47 47 49 46 44 43 43 44 43 45 46 45 43 43 43 43 44 46 47 44 43 43 39 39 37 43 44 41

GFSCGP_700_spd_084.txt.gz
Wind_Speed
28 28 32 26 23 21 10 14 15 14 16 16 17 21 18 18 21 17 16 14 13 14 12 17 19 19 19 19 18 17 17 15 17 17 18 18 17 19 18 18 19 20 22 22
27 31 23 21 22 22 20 16 12 11 13 14 18 23 20 18 19 18 18 16 17 16 16 20 21 22 22 22 20 20 19 20 18 19 18 21 20 21 21 22 22 23 24 25
27 16 24 24 24 22 21 19 15 13 11 13 18 26 23 19 19 19 19 18 18 15 15 17 19 23 24 24 23 23 24 24 22 21 23 23 24 22 21 21 24 25 27 28
21 26 15 25 24 21 22 18 17 16 13 6 7 7 11 11 11 16 16 17 17 16 20 20 20 20 20 21 21 21 22 22 23 24 24 24 25 26 22 22 23 24 28 31
21 23 27 19 24 19 18 13 13 13 11 12 15 9 2 3 10 12 13 15 17 16 14 13 13 14 14 16 17 16 15 14 17 20 22 23 26 26 26 25 26 26 28 30
24 16 19 25 18 20 15 14 10 9 8 5 14 14 6 6 10 8 10 12 13 12 11 11 11 10 9 9 10 12 13 14 14 18 22 24 25 26 27 27 26 26 28 31
27 24 21 18 23 21 20 16 3 1 2 4 7 12 10 9 14 11 12 13 12 11 10 9 9 9 8 10 13 15 16 18 18 17 17 18 19 20 21 22 24 26 27 28
26 14 27 23 24 26 25 23 9 7 4 3 9 8 5 17 17 14 14 13 12 11 10 9 9 9 10 12 13 14 15 15 15 15 16 17 18 20 21 22 23 25 28 30
26 21 17 28 27 22 26 27 24 4 3 0 6 6 11 12 19 20 19 16 13 12 11 12 13 12 13 14 13 11 12 12 13 13 15 16 19 21 23 24 24 26 28 30
15 9 18 27 26 28 28 27 17 14 3 3 4 7 8 18 22 22 20 16 15 15 15 14 13 13 13 11 11 11 13 15 16 18 18 19 21 22 24 24 26 28 30 32
34 23 15 27 32 36 32 25 20 16 11 5 2 6 21 21 26 27 25 24 20 19 17 15 16 16 15 16 18 19 20 19 19 21 21 22 24 26 27 28 29 30 30 32
41 21 19 28 31 34 35 36 38 22 9 14 8 8 13 20 27 29 28 27 23 21 21 19 16 17 20 24 27 27 28 30 30 29 28 28 28 28 30 33 35 36 37 39
42 25 14 9 22 32 38 38 34 36 22 25 11 12 23 20 25 29 29 27 24 22 20 19 23 28 32 33 32 32 31 34 37 38 36 35 35 35 36 35 36 38 42 44
32 38 32 27 19 29 37 41 40 36 30 32 32 19 24 22 27 30 30 29 28 26 25 28 33 34 32 28 27 28 29 32 31 33 34 36 38 39 41 42 43 45 46 47
29 33 34 32 27 22 29 40 41 43 45 30 44 37 31 26 28 30 28 30 29 29 33 38 38 35 33 33 34 35 35 36 37 38 40 41 43 44 45 45 45 46 47 49
30 18 35 34 27 23 25 28 34 37 44 45 38 31 27 28 31 30 29 32 37 40 40 38 35 35 37 37 36 35 35 35 36 38 40 42 44 46 47 48 50 51 52 52
27 23 24 21 28 30 26 39 32 34 38 39 42 42 39 33 26 28 34 36 35 36 35 35 34 33 32 31 30 30 32 34 36 38 39 40 42 43 44 46 47 48 50 52
11 9 12 8 16 3 17 19 31 39 36 36 37 38 33 30 29 30 33 35 32 29 29 28 28 28 29 30 32 33 35 37 38 39 40 42 43 44 44 44 44 44 45 47
19 16 12 9 18 9 12 17 17 23 27 26 29 30 29 30 30 27 26 26 26 28 28 28 28 30 32 33 35 37 38 39 40 41 41 41 43 44 45 47 48 48 48 46
24 23 27 14 6 8 13 20 21 23 28 26 23 23 24 26 25 22 24 25 27 28 30 30 31 34 35 38 40 41 42 43 44 45 44 44 45 46 46 45 46 46 47 47
29 28 30 24 16 17 24 15 16 19 15 11 18 22 20 20 22 24 25 26 30 30 31 33 36 38 40 43 44 44 46 48 48 47 46 46 46 47 48 48 47 46 48 50
31 25 26 22 16 16 16 19 24 21 18 17 17 21 23 24 25 26 29 30 32 34 36 39 40 41 44 48 48 48 50 51 48 46 45 44 44 44 43 45 45 46 47 48
31 29 32 26 24 27 14 16 16 16 16 17 18 17 17 20 25 31 33 34 36 38 39 41 43 45 47 53 55 54 54 51 47 45 44 43 44 46 46 45 44 43 43 44
29 27 31 26 30 26 22 22 24 23 23 23 25 28 31 34 35 35 36 38 41 42 44 46 48 50 53 59 58 57 54 50 47 45 44 44 46 46 45 44 44 43 43 44
30 27 31 31 29 23 25 24 20 21 23 28 31 31 32 34 35 38 39 40 43 46 49 52 55 59 59 56 53 50 49 48 47 46 45 44 45 45 41 40 39 39 38 39
37 36 35 38 35 33 29 27 30 32 32 28 27 29 33 35 38 41 44 47 51 54 57 58 57 56 54 52 51 49 48 47 46 45 42 42 40 36 36 37 37 36 35 36

GFSCGP_700_spd_087.txt.gz
Wind_Speed
29 29 32 27 24 21 17 14 18 12 17 13 18 18 16 17 18 16 15 15 16 15 16 19 19 19 18 18 17 16 16 15 17 19 17 18 17 19 18 18 20 20 20 21
27 31 24 23 22 21 18 11 13 13 14 15 16 18 18 17 19 20 19 19 19 20 18 19 21 21 22 22 21 19 18 19 19 20 19 20 20 20 20 21 20 21 22 23
30 20 25 24 25 25 22 18 16 12 11 13 15 20 18 17 20 21 20 21 21 22 20 19 20 21 21 23 23 22 21 22 22 22 24 24 24 22 20 18 19 20 23 25
22 28 19 26 26 23 21 18 16 14 11 6 7 5 5 6 11 14 16 18 19 20 21 20 21 19 19 17 18 20 22 23 23 24 26 25 24 23 20 22 22 23 23 24
22 24 28 22 28 22 20 16 16 17 14 11 12 7 4 7 12 14 14 16 18 18 17 15 18 18 18 18 17 17 17 18 18 19 21 22 23 23 23 25 26 27 27 29
22 17 21 25 19 19 16 16 13 11 8 5 14 14 8 12 15 18 15 14 15 16 16 14 11 9 8 6 6 8 10 11 12 14 16 18 21 23 24 25 26 27 29 30
28 21 22 21 23 22 20 19 4 1 2 5 9 13 8 11 15 14 14 15 15 14 12 10 9 8 7 8 8 9 10 12 15 17 17 17 19 19 19 21 22 23 25 27
27 15 28 24 28 31 26 26 10 7 4 3 10 9 7 18 18 17 18 17 16 15 14 12 10 9 9 10 10 11 13 14 13 14 14 15 17 18 19 20 22 24 26 27
30 22 24 24 25 23 30 31 22 5 4 2 7 8 12 19 25 21 20 20 19 17 14 13 12 10 10 10 10 10 10 12 11 12 12 13 14 15 17 18 20 22 25 26
15 11 20 28 28 28 23 28 18 12 4 3 5 8 12 24 29 28 26 23 21 18 16 14 12 10 10 9 10 10 10 11 13 15 17 18 19 21 22 24 25 26 29 31
31 19 15 31 33 39 33 29 21 18 10 5 3 8 22 21 27 32 31 27 24 21 18 15 13 14 15 14 13 13 15 17 18 20 22 24 25 27 29 30 30 30 32 34
41 23 15 31 31 36 36 34 38 20 9 15 4 7 12 25 27 30 31 30 28 25 23 20 17 17 17 16 18 20 23 25 27 26 24 24 24 25 28 30 31 32 34 36
44 25 14 11 24 32 38 40 36 37 23 25 12 11 18 23 30 30 31 30 30 28 26 25 24 23 22 23 25 28 28 30 28 27 27 29 29 33 33 33 34 36 38 40
34 39 38 30 26 32 39 42 39 37 29 26 32 27 21 29 30 30 32 33 31 30 28 27 25 24 25 28 32 34 37 37 35 36 35 37 37 38 38 39 40 41 43 44
32 33 39 40 35 23 34 44 42 43 45 27 45 38 33 32 25 31 34 33 32 30 26 25 26 28 31 34 36 37 38 39 38 38 37 38 39 40 41 42 42 44 46 47
38 24 35 35 34 29 29 28 36 45 46 48 45 30 29 27 31 32 35 33 30 26 26 29 34 38 40 38 36 34 32 30 29 31 33 34 36 38 40 41 42 43 44 46
40 37 25 26 31 24 21 42 41 42 46 48 49 45 28 25 35 35 35 31 28 33 36 39 37 34 32 30 28 26 27 28 30 32 34 35 37 38 40 42 44 46 47 48
28 33 21 13 23 10 31 33 39 40 39 41 43 41 35 29 23 28 35 35 32 34 32 31 30 28 26 26 27 28 30 32 33 36 38 40 41 42 44 45 47 48 49 50
17 14 9 9 14 4 16 18 23 34 43 41 34 32 32 27 25 27 29 30 30 28 27 24 24 24 27 29 30 31 33 34 36 38 39 41 44 45 46 46 47 47 48 49
17 14 19 10 4 7 9 12 12 10 17 18 27 28 26 27 31 30 29 26 25 24 24 24 25 28 30 32 34 36 37 39 40 41 42 44 46 47 46 46 46 47 47 48
27 26 27 23 11 12 15 12 11 16 13 14 25 28 29 30 27 23 22 23 23 23 24 28 29 32 35 36 38 39 41 44 46 47 47 48 47 47 47 46 46 46 46 46
30 25 23 28 16 16 22 17 20 21 22 17 18 24 26 24 21 20 19 20 22 25 28 32 33 35 37 39 41 43 45 47 50 52 51 50 49 47 46 46 47 46 46 46
29 31 31 24 26 18 22 24 22 19 16 20 19 20 23 23 21 21 21 23 27 30 31 34 35 37 40 43 45 47 50 54 56 53 51 47 46 46 46 45 45 46 44 42
34 31 33 28 30 28 29 25 18 15 18 18 19 19 19 19 22 26 29 30 31 32 34 36 38 40 42 47 50 54 56 55 54 53 50 49 47 45 43 42 40 37 36 37
29 32 36 37 37 25 28 29 23 22 22 22 20 21 24 26 28 30 30 31 33 36 37 40 43 46 49 52 52 51 51 51 50 51 49 48 46 44 41 38 38 39 41 41
33 37 36 39 36 33 28 22 22 22 22 23 27 29 30 30 29 30 32 36 38 41 43 44 44 43 42 43 45 47 49 50 51 50 49 48 47 45 43 42 42 43 44 43

GFSCGP_700_spd_093.txt.gz
Wind_Speed
30 27 27 25 23 20 22 22 15 20 26 20 25 26 26 23 18 15 21 21 17 20 20 19 19 20 19 20 19 20 20 19 21 21 21 22 21 22 22 22 22 24 25 25
29 30 22 20 25 25 21 19 18 17 19 23 22 23 22 24 26 24 22 21 20 21 21 21 21 21 21 20 20 21 20 20 21 20 22 23 22 22 23 24 25 26 27 27
24 24 23 27 27 27 18 19 19 12 20 17 18 24 24 25 25 26 25 24 23 24 24 24 24 24 23 23 23 24 24 25 24 23 24 24 24 22 23 24 23 24 27 29
18 21 29 30 28 27 20 18 16 15 10 10 13 7 17 24 29 27 26 26 26 26 26 26 25 25 25 24 23 23 23 26 27 27 26 24 24 25 25 25 25 25 27 29
25 26 22 31 29 27 17 17 19 14 10 10 10 8 15 17 21 26 28 27 28 26 26 25 25 24 24 23 21 19 19 19 21 25 26 26 25 25 25 26 26 26 26 28
21 22 26 23 29 25 21 18 14 11 6 9 16 14 13 18 23 26 24 20 20 20 21 21 22 21 21 20 19 18 16 16 16 15 16 16 16 18 19 20 22 23 24 25
23 22 27 25 24 26 25 19 7 5 6 7 12 14 23 15 18 18 17 17 20 21 20 18 17 16 16 14 13 11 10 9 10 11 13 15 16 17 18 18 18 19 20 21
22 14 27 23 30 30 32 25 11 7 5 5 12 12 13 25 27 22 22 22 22 20 18 17 16 15 15 15 13 11 10 9 9 9 11 11 13 13 13 14 14 15 17 19
23 17 25 22 30 28 29 31 19 4 4 2 9 12 20 21 21 27 25 23 20 18 18 18 18 17 17 15 13 11 10 9 10 11 11 12 13 13 14 15 18 20 22 24
17 12 17 30 27 27 24 28 14 10 5 5 9 10 15 19 28 28 29 26 23 21 21 22 20 19 17 14 13 12 12 11 12 12 12 12 13 14 16 18 21 25 27 28
21 19 16 27 33 35 31 28 23 14 13 4 4 9 18 25 23 22 27 28 27 26 24 22 22 21 18 17 16 15 14 14 13 12 13 15 17 20 23 25 27 30 30 30
35 20 12 30 23 31 30 25 34 18 10 20 7 12 10 8 19 22 28 30 29 29 27 26 25 24 22 20 18 17 16 17 17 17 19 20 22 26 28 29 30 31 33 34
45 19 11 9 17 27 36 38 35 38 19 21 11 15 20 18 17 25 30 33 33 32 32 31 30 28 26 23 21 21 21 19 18 20 21 23 25 26 28 29 29 32 34 35
39 36 42 27 36 23 32 42 45 36 26 32 30 32 23 20 21 26 26 29 34 35 35 34 33 30 28 25 25 24 21 19 21 23 26 30 31 31 32 33 33 33 35 37
32 37 37 47 32 29 34 39 43 46 53 34 50 39 34 30 24 19 23 30 35 39 39 37 36 34 31 29 27 24 23 23 26 29 31 31 31 32 33 34 36 37 39 41
40 26 38 41 34 34 28 29 34 46 53 54 49 33 33 33 29 30 32 31 34 37 40 40 39 36 33 30 26 24 25 28 31 31 32 32 32 33 34 35 37 39 41 43
40 40 22 20 31 33 28 54 40 40 39 45 50 53 37 34 35 35 33 33 35 39 42 42 40 37 33 28 26 27 30 31 31 32 32 31 32 33 35 38 40 43 45 48
39 38 34 21 15 8 40 30 41 52 53 47 45 44 37 39 41 33 31 33 36 43 44 43 40 37 33 30 30 30 32 33 34 32 32 33 35 37 39 42 45 47 49 52
42 40 29 19 21 17 27 37 30 37 50 47 50 51 49 44 29 33 34 34 38 44 43 41 37 33 31 32 33 35 37 36 34 33 35 36 39 41 44 46 48 51 53 52
42 44 35 19 11 12 26 37 21 25 50 43 41 43 48 45 47 50 39 33 40 45 42 41 39 36 32 36 40 37 34 34 34 35 37 40 43 45 47 49 51 51 52 53
33 41 42 30 17 19 31 24 21 23 30 20 25 29 42 46 49 44 39 34 42 48 47 43 38 35 42 40 35 34 34 34 35 37 40 42 45 47 50 50 50 51 51 51
29 21 22 20 22 22 22 19 27 27 27 15 9 11 20 31 37 37 33 33 40 43 44 41 41 40 38 35 33 34 34 35 37 39 41 44 46 47 48 49 49 49 50 51
18 26 15 20 23 14 9 13 11 19 16 17 17 16 15 15 24 29 32 29 34 36 37 40 39 36 34 33 33 34 35 37 39 40 41 42 43 45 45 47 49 50 51 52
23 21 27 21 32 25 24 23 18 17 17 17 18 21 23 25 29 34 39 36 36 38 39 37 34 33 32 32 33 35 36 37 38 38 39 40 41 43 45 47 49 51 51 51
30 27 31 32 32 26 27 28 22 24 27 25 25 24 23 24 29 32 31 29 29 30 30 29 30 32 33 34 34 35 35 35 35 35 36 39 41 42 42 44 45 46 46 46
30 34 34 36 34 31 32 26 23 25 26 26 25 23 23 25 23 22 22 23 24 25 27 30 32 32 32 34 35 34 32 31 32 34 36 37 35 37 41 44 45 44 44 43

GFSCGP_700_spd_096.txt.gz
Wind_Speed
31 31 34 34 28 21 17 28 18 26 22 22 28 26 24 24 22 16 20 21 18 19 20 17 18 19 19 17 17 18 19 18 18 18 18 18 18 19 19 20 20 22 24 25
31 35 30 25 29 23 21 20 25 17 22 22 22 25 25 26 27 22 21 19 22 22 18 18 18 19 19 19 18 18 19 19 19 16 18 19 19 19 20 21 22 23 24 27
33 29 18 24 26 26 24 20 26 20 16 19 21 26 27 26 27 24 25 26 23 23 23 22 22 21 21 20 19 19 20 21 21 21 20 21 20 19 19 20 21 22 24 26
19 21 27 27 28 29 23 18 19 21 16 9 19 5 12 22 28 27 26 26 28 27 27 25 25 24 24 23 22 21 22 23 25 24 24 24 23 21 21 21 21 23 24 25
23 26 26 27 32 25 17 19 18 16 15 9 12 7 12 14 21 22 27 28 28 27 27 26 26 25 25 24 23 22 20 20 20 21 22 24 23 23 23 22 21 21 22 23
22 21 24 26 27 26 19 19 15 12 11 4 15 15 10 21 21 21 21 25 27 28 27 26 26 25 24 23 21 21 20 19 20 19 18 17 15 16 16 17 16 17 18 19
22 20 27 24 27 27 28 21 6 2 3 5 14 16 20 12 18 20 20 22 22 21 22 22 22 22 22 20 18 16 15 14 12 11 10 11 12 13 13 14 14 14 15 15
24 13 26 24 30 33 35 29 10 6 5 4 12 12 18 25 28 20 16 18 20 20 23 23 21 20 19 18 15 14 13 11 9 8 8 9 8 9 10 10 11 11 13 15
23 14 24 24 31 29 31 32 18 5 4 2 8 14 21 20 23 23 25 28 25 23 22 20 19 18 18 17 16 14 13 11 9 9 8 9 10 11 11 12 13 15 17 19
16 14 18 27 29 28 25 33 21 11 5 4 9 11 19 13 23 29 27 25 26 22 20 20 20 19 19 18 16 15 13 12 11 10 12 12 11 11 13 14 16 18 20 23
18 17 18 25 30 35 28 28 21 19 9 5 3 9 17 21 22 21 18 23 24 22 21 21 22 22 21 19 18 17 16 14 13 13 13 13 13 14 16 18 20 21 24 26
31 20 11 29 27 27 34 32 37 19 10 17 3 10 6 4 5 15 17 20 22 24 24 24 23 23 23 22 22 20 17 15 16 16 16 17 16 17 19 22 24 25 26 27
43 17 11 8 15 27 30 36 35 36 19 24 10 16 21 20 19 15 16 21 22 26 28 28 27 26 26 26 24 21 20 19 18 18 20 21 19 20 24 26 27 26 26 28
32 34 28 23 24 24 37 40 39 36 27 29 30 38 31 25 22 19 18 20 23 28 28 30 31 31 30 28 26 25 24 23 23 22 22 22 22 24 26 28 28 27 28 30
39 38 41 41 34 27 25 28 37 40 46 32 50 48 44 37 29 23 16 19 23 27 31 33 35 34 33 32 31 30 28 25 24 23 24 24 26 28 30 29 29 30 32 35
41 28 39 50 49 41 39 35 35 39 44 50 50 45 42 37 33 31 29 27 24 27 28 35 37 37 37 36 34 32 29 26 25 25 27 27 28 31 31 31 32 33 35 38
36 38 21 28 28 33 28 49 42 41 44 45 52 53 47 38 32 33 35 32 29 31 32 34 38 40 40 38 36 34 31 28 27 27 27 28 31 33 34 34 35 37 39 42
39 41 28 16 16 5 46 45 46 48 48 44 45 45 41 42 45 43 41 39 33 31 34 36 40 42 41 40 38 35 32 28 27 29 30 32 34 36 36 37 38 40 43 46
30 38 27 19 23 17 34 44 45 45 57 52 56 55 51 44 38 40 38 39 35 31 31 33 41 43 42 41 39 35 31 30 31 31 33 36 38 38 38 39 41 44 47 49
48 39 38 18 14 13 40 36 32 29 46 49 42 41 38 43 47 54 49 49 42 37 33 36 43 45 43 41 39 35 33 32 33 36 40 40 37 38 39 41 44 47 49 50
42 43 41 34 15 20 32 18 14 27 30 22 26 24 29 38 43 41 41 44 42 37 33 38 45 45 43 41 38 34 33 35 41 42 37 36 37 39 41 44 46 47 46 46
38 30 24 28 22 21 18 20 32 33 31 24 26 25 22 26 31 32 35 37 36 35 37 40 44 46 44 41 36 35 37 38 37 35 34 36 39 41 43 44 44 42 41 41
23 28 28 28 26 12 8 11 14 22 23 21 19 19 16 15 17 24 28 28 28 32 38 41 45 46 42 38 38 43 39 35 34 33 35 38 40 41 42 40 38 36 36 40
23 25 19 27 28 26 24 10 6 6 12 16 18 18 17 18 18 16 15 21 26 30 32 40 43 43 44 45 45 37 32 32 32 35 38 39 39 36 35 33 32 33 36 40
15 15 18 23 23 17 17 16 16 20 21 20 21 23 22 18 20 22 23 24 26 27 30 39 45 45 45 37 29 30 31 33 36 38 37 35 33 32 30 28 30 34 37 41
27 28 26 26 24 21 23 24 23 20 19 20 22 24 24 22 22 23 24 26 27 27 31 40 41 33 27 27 31 33 35 36 35 34 32 31 31 30 29 30 30 33 37 39

GFSCGP_700_spd_102.txt.gz
Wind_Speed
40 39 49 41 35 29 28 32 20 24 28 29 28 27 23 23 25 24 23 20 18 18 19 19 16 15 15 14 14 13 14 14 15 15 14 14 14 15 15 15 16 16 16 17
38 49 39 32 31 27 25 29 22 29 26 30 29 28 26 26 24 23 21 19 18 21 20 20 18 18 18 17 17 17 15 15 16 17 17 17 17 17 17 18 17 17 18 19
40 35 37 35 36 31 28 30 31 23 27 25 29 31 32 30 28 28 28 25 23 20 20 21 19 20 20 19 18 18 17 16 16 16 19 18 19 18 18 18 18 19 19 20
32 37 39 38 37 37 33 29 29 17 24 24 23 11 33 34 34 35 33 30 27 24 23 22 23 22 21 21 21 20 19 19 18 19 20 20 20 20 21 20 20 20 20 21
33 29 28 39 41 37 36 29 21 18 23 26 25 14 29 26 40 40 33 31 29 27 26 25 25 24 24 24 23 23 23 22 21 22 22 23 23 23 24 23 23 23 21 21
28 22 26 32 34 32 34 28 21 19 25 13 28 28 21 31 33 30 34 32 30 31 28 27 27 27 26 26 27 27 26 26 24 24 24 24 22 21 23 23 22 20 17 16
34 26 34 28 32 32 31 29 8 4 5 6 23 20 29 14 20 26 26 23 28 33 32 29 28 28 28 29 29 29 29 28 26 25 25 24 23 20 20 19 17 16 15 13
31 21 36 28 37 39 36 38 12 7 4 4 10 11 19 24 13 22 27 29 26 27 27 28 30 31 31 30 29 29 29 28 26 24 24 23 22 20 18 16 15 14 12 11
32 22 36 33 36 33 37 38 29 9 5 1 14 19 18 23 27 26 24 26 26 26 27 29 27 28 27 26 27 26 25 24 23 22 21 21 22 19 16 14 14 13 12 13
22 22 28 39 32 37 32 39 23 12 5 4 7 13 15 23 28 26 27 28 29 29 28 25 25 27 27 27 26 25 23 22 21 21 23 22 20 17 17 16 15 14 14 16
23 25 21 36 35 39 37 35 33 24 13 5 1 8 12 18 16 17 21 28 28 27 26 27 27 27 27 26 25 24 22 22 23 24 23 20 19 18 18 17 16 16 17 18
26 20 21 37 34 36 38 34 44 25 17 17 5 11 2 17 21 22 18 16 17 19 23 25 27 27 26 25 23 22 23 24 25 24 23 21 19 19 18 18 18 19 20 21
34 15 13 11 27 33 37 41 39 43 25 30 13 15 13 7 10 11 9 7 12 19 22 25 27 25 24 24 24 25 26 27 26 24 22 23 21 20 20 20 21 22 22 23
40 23 29 27 32 37 38 41 37 38 30 28 34 41 35 23 20 19 19 16 15 17 18 19 21 23 25 26 27 29 29 28 27 27 26 25 23 23 23 24 24 24 24 24
48 40 29 31 30 24 39 42 43 43 47 33 50 46 41 36 32 26 19 18 15 17 18 18 20 22 26 28 30 31 31 31 30 29 28 27 27 27 26 26 25 26 26 25
44 35 42 30 23 22 21 25 34 43 47 48 50 48 39 36 37 34 30 27 24 24 22 22 22 22 25 29 31 32 33 33 32 32 31 31 30 29 29 29 27 27 27 27
42 43 31 38 41 30 19 38 34 33 38 40 48 44 31 35 35 32 30 29 30 29 27 24 22 21 24 26 29 32 34 35 35 35 35 34 34 33 32 30 29 28 28 30
44 45 32 25 27 6 48 49 40 35 37 38 43 43 42 42 41 38 33 30 30 28 27 29 30 29 27 28 32 36 39 39 39 38 38 38 37 35 34 32 31 30 31 33
42 44 29 18 21 22 31 48 44 49 58 46 51 49 48 44 43 45 41 36 33 31 30 29 27 30 32 32 33 38 42 42 43 42 41 41 39 37 36 34 32 32 34 34
34 40 37 20 12 12 49 37 24 26 48 50 48 48 47 44 43 51 41 40 40 39 38 37 36 36 34 35 37 41 43 45 45 44 43 43 42 40 37 35 33 34 33 33
34 36 38 35 17 22 31 14 17 26 41 25 31 31 27 31 36 40 39 40 40 41 44 44 42 40 39 39 41 42 43 45 45 46 45 44 43 40 38 35 35 35 35 35
40 29 31 31 24 26 20 27 33 36 35 33 30 34 40 37 27 26 27 31 36 36 35 36 37 41 39 42 43 42 42 43 47 46 46 45 43 41 38 38 40 34 33 34
38 39 44 36 46 24 12 31 27 29 32 34 34 32 32 29 25 23 22 24 24 26 29 30 34 34 39 43 45 44 41 43 46 47 47 46 43 41 42 44 34 35 34 34
43 45 45 42 47 46 45 42 31 26 28 34 28 27 30 35 34 35 32 28 26 26 29 30 30 33 37 39 40 41 39 41 45 48 47 46 45 47 49 39 36 30 32 33
35 46 45 46 45 33 38 32 30 30 35 32 24 27 26 28 30 30 27 27 26 24 23 25 28 30 34 35 35 35 38 42 45 46 47 48 52 52 44 29 29 32 33 32
29 29 39 37 45 41 35 36 37 38 37 36 35 30 26 26 26 28 27 25 23 21 21 22 23 26 29 30 31 33 37 43 46 49 51 52 52 39 26 29 32 32 31 28

GFSCGP_700_spd_105.txt.gz
Wind_Speed
36 32 43 40 32 24 19 23 23 26 26 30 31 30 26 25 27 25 24 25 24 19 16 18 18 19 19 21 21 20 19 17 18 16 15 14 15 16 16 16 16 16 16 17
34 45 37 31 26 29 17 24 31 23 27 27 32 34 29 29 27 29 26 25 23 21 22 21 21 20 19 19 20 20 18 19 17 17 16 17 18 18 19 19 18 18 18 19
41 27 33 27 30 31 31 28 35 30 26 25 30 35 35 34 29 31 31 27 25 23 22 21 21 22 21 21 20 19 20 20 19 19 20 21 20 20 21 20 20 21 22 21
37 18 33 32 34 33 38 24 26 25 21 28 24 13 39 36 34 33 32 31 27 24 22 22 25 24 22 22 23 22 21 21 21 21 23 22 22 22 22 23 24 25 24 23
34 34 27 44 39 32 39 26 24 23 22 20 23 17 33 35 44 41 37 34 32 30 28 26 25 24 26 26 24 23 23 23 23 23 25 25 25 24 24 26 27 26 25 23
25 18 28 30 29 31 35 26 25 21 20 12 32 28 24 39 39 40 38 37 34 33 32 31 30 30 29 28 27 25 26 25 25 25 26 27 26 26 26 27 27 27 25 23
38 32 30 28 33 35 35 33 8 5 5 10 25 25 40 15 28 29 38 34 35 39 35 34 31 31 32 31 30 29 29 29 28 28 28 29 29 28 28 26 27 25 22 20
33 25 36 37 38 44 43 37 11 7 4 2 12 12 33 30 24 17 28 31 32 31 35 38 36 34 33 33 34 33 32 32 31 30 30 30 31 28 28 27 25 22 19 17
32 27 34 34 34 31 35 37 40 11 5 2 18 28 34 20 30 37 31 25 34 35 33 31 32 32 32 35 35 34 33 33 33 32 31 31 31 28 28 24 21 19 17 15
21 22 17 34 28 31 33 40 22 23 4 4 7 16 23 19 32 25 28 31 26 31 36 35 34 33 32 32 33 34 34 33 32 31 30 30 30 28 26 23 21 19 17 16
22 24 21 31 38 38 36 35 31 24 24 6 1 11 22 22 24 25 26 33 31 31 31 30 29 29 30 31 31 31 30 29 29 29 28 28 28 27 24 23 20 19 18 18
34 20 21 37 36 38 40 37 43 25 21 15 12 23 11 12 17 21 24 30 32 33 33 32 35 33 31 29 29 29 28 28 27 27 27 26 26 25 24 22 21 21 20 20
40 21 14 13 28 39 42 42 41 43 25 35 13 28 34 13 12 20 25 21 18 20 24 27 32 32 30 28 28 27 27 27 27 26 26 25 26 26 24 23 22 23 23 22
39 25 33 27 33 34 38 44 39 36 32 31 37 42 36 27 16 9 8 9 10 11 14 18 22 25 26 27 27 27 27 27 27 26 26 26 26 25 24 25 25 25 25 24
43 37 28 34 36 23 38 47 46 42 45 31 57 50 46 42 35 27 24 21 23 20 15 17 19 20 23 25 27 28 28 26 26 28 28 28 28 29 29 28 28 27 27 27
52 39 42 29 26 22 22 25 35 46 49 52 50 54 44 43 40 37 34 33 28 25 23 21 19 18 20 22 24 26 28 29 30 30 30 31 32 32 32 31 30 30 30 30
46 52 31 34 28 17 16 30 28 29 39 46 53 50 37 41 41 35 31 30 29 27 26 25 24 22 20 19 22 25 28 30 32 34 35 35 35 34 34 35 34 33 32 31
45 42 43 30 26 6 42 38 36 39 43 42 45 41 37 37 32 30 28 26 29 31 30 28 27 26 26 23 22 23 27 31 34 37 38 39 38 39 39 38 38 36 33 31
38 42 29 23 23 18 32 42 39 43 52 47 53 45 41 36 35 36 36 38 37 35 34 30 29 27 29 31 30 30 30 34 38 40 42 41 41 41 41 41 39 37 35 33
34 35 38 26 16 16 61 41 42 26 49 46 45 44 44 46 47 54 38 39 39 38 37 35 31 31 31 32 34 33 35 37 39 39 41 43 44 43 43 43 41 38 37 35
32 32 35 36 15 24 29 22 21 24 44 25 29 31 31 34 37 38 33 28 30 36 38 39 38 38 36 38 36 37 40 40 37 39 43 46 46 45 44 43 41 40 38 35
37 27 27 30 26 25 28 27 33 33 31 32 25 26 19 19 23 30 35 34 31 33 36 40 41 42 44 45 42 43 44 41 40 40 44 47 47 47 45 44 42 40 37 41
39 37 38 33 41 13 23 31 30 27 28 29 31 31 33 37 37 35 30 24 20 19 20 24 31 37 39 39 40 44 42 42 40 42 44 46 48 47 46 45 42 39 46 46
43 41 40 39 46 45 39 30 23 24 26 30 30 29 29 33 36 31 29 31 32 32 32 30 28 29 30 33 36 39 42 39 38 40 43 45 48 48 47 44 46 49 47 46
33 38 41 45 46 39 40 43 37 36 38 40 42 39 37 36 33 32 31 31 31 30 28 28 28 29 30 32 34 38 37 35 38 39 40 43 47 49 49 49 48 51 46 37
42 46 42 45 47 46 41 38 34 36 40 40 39 38 37 32 32 32 30 29 29 26 25 25 26 27 25 27 31 35 34 35 35 37 40 44 48 49 48 52 53 44 35 23

GFSCGP_700_spd_108.txt.gz
Wind_Speed
33 34 35 35 31 25 23 30 38 29 43 27 27 29 28 25 25 26 25 25 25 23 18 22 22 22 24 25 24 23 23 22 22 21 21 20 18 19 19 18 19 18 19 18
34 40 32 33 30 26 19 15 21 29 23 32 29 33 31 32 28 25 25 25 26 23 22 21 20 22 23 22 23 24 22 23 22 21 21 21 21 22 22 21 21 20 20 20
37 22 35 33 30 28 25 21 15 14 23 21 24 32 40 37 34 31 29 28 26 23 24 22 22 22 21 23 22 23 23 23 23 22 23 23 25 24 22 22 21 21 22 24
34 21 23 36 36 29 27 23 11 14 19 22 19 18 41 41 38 37 32 31 30 27 27 25 25 23 23 23 24 25 26 26 26 25 25 25 24 24 22 23 25 26 26 24
29 28 26 33 40 31 23 12 18 12 15 25 28 17 41 37 43 41 37 31 29 27 27 26 24 22 24 26 27 28 29 29 28 27 27 27 27 25 25 26 27 27 27 26
26 20 28 33 30 32 28 23 6 12 16 15 39 26 23 38 40 40 38 36 32 30 29 29 29 28 27 28 28 29 29 28 28 28 27 28 28 27 29 28 27 29 29 28
30 27 28 28 27 34 31 29 4 4 6 9 14 23 39 13 24 33 40 41 39 35 34 34 35 33 31 30 31 30 30 30 30 29 29 29 30 31 32 32 31 28 27 27
29 18 30 28 34 39 34 38 14 7 3 4 12 17 22 29 23 10 22 35 41 40 36 36 36 36 36 35 35 35 33 32 32 32 32 33 33 35 36 35 32 29 27 24
28 21 19 29 31 33 35 43 31 1 4 3 19 31 37 25 13 28 31 22 29 37 39 40 35 39 42 41 39 37 36 36 36 36 36 35 35 36 36 36 31 30 26 23
17 14 16 28 23 28 32 34 27 27 5 5 7 18 23 9 19 23 31 29 35 37 31 41 43 40 40 41 39 38 39 40 39 38 38 37 36 37 36 36 31 28 24 22
21 20 16 29 37 37 35 36 31 27 25 5 0 15 22 21 16 15 20 27 29 30 35 32 39 39 37 35 36 38 38 39 39 38 38 37 37 37 36 32 31 26 24 22
33 19 16 33 31 38 36 39 41 23 21 21 16 36 6 1 4 14 21 28 32 34 36 36 34 33 33 33 33 32 33 34 34 34 33 33 34 34 32 30 27 25 24 23
43 20 14 13 24 34 42 42 39 43 22 35 11 39 25 35 26 14 20 24 26 24 32 34 34 32 32 33 35 34 33 33 33 33 32 32 32 31 30 28 27 26 25 25
43 27 28 23 29 26 37 42 39 33 31 32 36 42 29 23 29 23 26 13 6 8 7 11 17 22 27 30 32 34 34 32 30 30 30 29 28 29 28 28 27 28 27 26
43 41 34 34 32 20 31 44 46 42 42 30 62 47 50 44 40 34 29 27 22 17 15 17 16 16 19 21 24 27 29 30 29 28 28 28 28 28 28 29 30 30 29 29
49 38 41 38 32 36 31 30 32 45 48 51 51 55 40 34 33 34 32 34 38 35 31 28 24 23 20 17 18 21 24 25 26 26 26 27 28 29 30 32 32 31 31 31
46 45 34 36 27 22 22 36 34 32 35 47 55 56 47 44 41 39 35 33 29 28 28 29 28 25 24 22 19 19 20 23 25 26 27 29 30 32 33 33 33 33 34 34
48 44 44 31 22 6 37 31 32 33 36 36 41 41 31 26 27 30 29 28 27 27 25 22 24 26 25 26 26 23 22 24 26 28 31 32 33 34 34 35 35 37 37 36
44 44 30 20 23 19 32 44 42 40 43 38 41 39 32 32 36 40 35 32 29 27 27 30 30 29 28 27 29 30 28 28 30 32 33 34 35 37 38 38 38 39 39 39
35 40 42 21 14 12 57 40 20 36 50 48 47 46 42 39 43 46 37 35 35 35 37 37 36 35 34 32 31 33 35 34 35 33 33 35 38 39 40 40 41 40 41 41
35 35 39 36 23 34 28 15 27 21 42 26 19 13 15 27 31 32 32 33 34 36 38 38 35 36 39 39 37 36 36 37 34 34 34 36 38 40 43 44 43 43 43 42
40 29 27 32 35 28 28 28 37 39 38 33 24 29 21 17 13 16 16 18 22 26 31 33 35 36 39 40 42 43 42 38 38 36 36 38 40 42 45 46 46 46 45 44
37 35 38 38 42 6 24 26 26 29 31 29 27 24 25 24 23 25 29 29 30 33 35 35 32 29 29 34 36 42 45 46 43 41 40 40 42 44 46 47 47 47 46 45
41 38 34 35 40 45 40 28 20 19 22 25 28 28 26 26 30 35 37 35 29 25 27 27 29 30 28 27 28 34 38 40 41 44 42 40 42 44 46 47 47 48 48 46
30 37 39 43 40 29 35 32 27 28 28 29 31 32 32 34 37 39 36 34 31 29 30 31 31 29 26 26 27 30 34 36 38 39 39 40 40 42 44 45 48 48 47 49
33 30 32 42 41 39 35 28 27 31 33 35 38 39 40 41 39 38 36 34 32 30 30 30 29 28 28 28 28 28 29 32 34 36 37 37 39 40 42 48 51 51 50 52

GFSCGP_700_spd_111.txt.gz
Wind_Speed
32 33 37 32 29 29 27 28 29 32 24 30 39 29 23 34 25 24 24 22 22 23 21 25 26 27 28 29 29 28 27 25 26 25 24 23 20 20 21 20 21 20 20 19
30 31 29 26 26 27 23 18 24 24 22 27 39 40 33 33 36 28 25 24 22 23 23 25 26 28 28 27 26 27 27 28 27 26 24 24 23 23 24 23 22 22 22 22
28 18 28 30 29 30 26 24 12 11 12 23 20 41 41 36 36 33 29 24 25 23 24 26 26 25 24 25 24 24 24 26 26 26 26 25 26 26 25 24 23 23 24 24
28 25 25 32 31 31 27 24 21 14 7 12 15 13 36 44 39 40 35 31 26 26 25 27 28 26 25 22 22 24 25 26 26 27 27 27 27 28 26 26 26 26 25 25
27 30 25 32 33 27 21 23 18 13 14 17 21 13 37 37 46 42 40 35 29 27 28 27 28 26 24 24 25 27 27 27 28 29 29 30 30 28 28 29 28 27 26 26
25 22 25 28 26 27 24 20 18 10 7 8 23 21 25 36 40 41 36 39 34 29 29 30 29 30 26 24 25 26 27 28 30 31 31 31 31 30 31 31 29 27 27 26
29 25 26 23 28 28 28 23 5 2 4 7 7 19 41 11 21 24 38 36 37 36 33 30 30 29 29 28 27 27 28 30 31 32 33 32 32 32 33 34 31 31 31 28
28 18 26 26 33 32 31 30 11 7 5 4 10 17 18 17 30 11 17 30 37 39 38 36 32 32 33 33 34 34 33 33 32 32 34 34 33 34 34 36 34 34 32 31
26 16 26 21 32 29 29 30 22 3 5 1 11 21 30 19 14 19 26 12 19 33 40 42 40 37 36 37 38 39 37 35 35 36 36 36 36 36 36 36 38 37 37 32
16 15 14 34 17 26 32 31 24 15 2 4 6 15 21 9 14 19 22 21 25 29 26 31 38 41 42 43 43 44 43 41 40 39 38 39 39 38 39 39 41 42 39 33
19 16 18 29 32 37 32 30 22 18 12 4 1 6 11 12 14 11 7 13 17 23 31 35 34 40 38 42 47 44 42 41 41 41 41 41 42 41 41 41 42 43 39 32
33 16 17 34 27 34 33 34 36 19 8 17 13 15 9 5 8 11 5 3 11 23 29 31 35 33 33 28 33 37 38 37 37 38 40 41 41 41 41 40 41 40 34 29
48 21 11 13 20 27 41 40 38 39 22 30 10 29 18 19 10 16 18 24 25 24 17 20 22 29 29 29 27 28 31 33 33 34 36 37 38 37 36 36 36 34 32 31
41 27 34 27 34 35 41 44 42 39 32 41 37 50 29 12 13 16 15 20 16 9 5 2 2 7 16 20 24 28 31 34 37 36 35 35 35 34 33 32 30 31 27 29
43 45 30 34 31 20 32 42 45 43 48 35 55 53 53 47 42 34 35 32 30 28 31 27 23 19 15 12 14 18 22 27 30 32 32 32 32 31 31 30 28 29 29 31
48 33 41 25 24 22 22 20 28 41 46 50 56 56 35 29 31 32 31 28 26 24 25 27 26 24 20 20 19 18 17 18 21 25 27 28 29 30 30 30 31 31 33 32
41 46 33 38 35 26 18 38 37 36 36 40 53 57 49 45 42 36 34 34 32 28 27 26 21 19 20 20 21 21 21 21 21 23 24 26 27 27 29 30 31 32 32 32
48 44 43 31 24 8 41 41 40 39 41 40 45 46 39 35 29 22 19 21 20 20 23 23 23 19 18 19 21 22 22 24 23 23 24 25 26 28 29 31 31 31 32 34
43 48 33 27 24 20 37 47 38 40 46 40 44 39 37 32 29 28 27 26 27 25 25 24 25 27 26 25 25 26 26 26 27 26 24 25 27 29 30 32 33 34 35 35
41 41 41 24 14 13 57 45 34 35 46 54 51 47 42 34 36 37 33 34 34 35 34 33 33 35 35 31 30 31 32 32 30 28 28 28 28 31 32 33 34 35 36 37
35 35 41 30 21 29 32 5 17 24 38 19 26 26 25 27 26 29 28 29 30 30 31 31 33 37 41 43 39 35 34 37 35 34 31 31 31 32 33 35 37 38 39 39
40 29 28 34 28 23 13 17 32 32 22 24 7 10 15 12 10 8 7 9 12 16 20 23 25 26 29 31 33 35 36 36 39 38 36 34 33 34 36 38 39 41 41 42
35 39 32 33 36 6 19 25 26 25 38 35 29 24 20 18 16 17 17 16 21 27 31 32 32 33 33 33 31 33 33 35 35 39 41 38 35 36 37 39 41 43 43 45
40 41 36 31 37 39 34 12 20 23 25 29 31 27 22 21 22 22 23 27 32 29 27 27 25 24 26 27 27 27 27 29 31 35 37 39 42 42 41 41 43 44 45 45
37 38 40 40 36 27 32 36 33 31 31 29 27 28 26 26 28 28 29 32 33 31 26 24 23 24 25 25 25 25 26 27 28 31 33 36 38 40 42 44 43 42 43 44
35 34 40 41 40 39 29 25 28 32 34 33 33 32 31 31 32 33 34 35 33 31 29 28 27 27 26 26 25 24 24 25 26 28 30 32 33 35 38 41 43 42 43 49

GFSCGP_700_spd_114.txt.gz
Wind_Speed
42 38 41 38 29 30 28 29 30 24 25 26 25 41 28 22 31 29 27 25 23 22 21 24 25 28 29 30 31 29 29 28 28 27 27 25 23 23 24 23 24 23 23 22
36 35 32 25 26 27 31 24 26 25 26 25 25 35 45 32 33 35 28 28 26 24 24 27 28 30 32 32 31 31 30 30 29 29 28 28 27 28 28 28 27 26 23 22
34 31 30 27 27 28 26 28 25 19 22 31 29 37 40 48 39 37 40 31 29 28 24 27 30 30 31 31 32 31 29 30 31 30 30 31 31 30 29 27 26 24 24 23
25 21 32 35 33 32 29 23 22 21 12 9 20 14 23 33 49 46 40 41 32 30 27 28 29 31 31 29 28 28 29 29 29 30 32 31 29 29 28 27 28 27 27 26
24 32 26 30 33 29 23 22 21 20 13 10 14 10 28 29 35 49 49 40 38 31 29 29 30 29 28 27 26 25 27 29 30 31 30 31 31 30 29 30 31 30 27 27
25 18 25 25 27 25 24 19 16 13 8 10 19 19 21 26 34 33 45 50 42 37 32 30 29 31 30 30 29 29 30 31 31 31 31 32 32 32 32 32 33 33 30 29
32 26 27 25 27 25 28 25 5 3 5 8 11 17 32 21 23 18 28 38 48 42 36 32 31 32 31 32 30 30 29 28 29 31 33 33 32 33 34 35 35 37 33 30
29 15 35 28 35 29 28 23 7 6 5 3 11 15 13 18 17 22 14 18 37 47 43 37 33 32 32 34 33 33 31 30 30 30 32 34 34 35 36 36 36 36 34 32
21 12 29 23 34 25 24 21 17 1 3 3 8 16 27 25 23 19 22 12 20 33 42 37 38 38 36 36 36 36 37 37 37 35 35 35 36 37 38 37 37 37 37 36
20 15 29 25 22 26 25 30 13 9 5 5 6 10 17 7 4 18 15 13 16 14 22 30 40 43 43 42 42 42 41 41 42 42 41 38 38 38 39 39 39 39 40 41
21 18 24 27 28 32 26 23 17 10 11 3 3 6 9 6 8 5 12 19 19 23 26 28 31 33 36 44 50 49 47 46 46 44 45 44 42 41 41 42 42 42 42 44
22 14 19 38 18 27 36 26 31 14 10 18 4 13 2 7 9 10 8 8 4 9 12 15 31 37 38 37 38 42 44 41 43 44 43 44 45 44 44 43 44 45 45 45
39 17 14 12 15 26 34 34 34 21 12 21 10 19 22 14 7 14 9 9 4 5 9 12 13 19 27 31 38 36 36 31 34 37 39 40 40 40 41 42 42 42 43 44
40 25 31 26 30 30 39 42 40 39 19 33 34 47 31 29 21 19 24 14 11 15 12 11 10 7 9 14 23 27 30 30 29 31 34 37 38 38 40 39 38 38 39 40
35 34 32 29 20 23 33 41 46 40 47 30 45 48 42 42 36 34 26 25 31 28 24 26 28 28 24 18 13 15 20 25 29 33 36 38 40 41 40 38 37 36 35 36
44 27 31 28 25 18 19 22 35 44 44 46 49 46 39 34 26 27 27 31 27 25 24 21 22 23 22 24 22 21 20 20 22 25 29 33 35 36 35 35 34 33 34 32
46 35 24 26 15 18 19 46 39 37 37 41 50 46 36 38 37 32 31 30 33 30 29 27 26 24 23 20 22 23 24 24 24 23 23 25 28 30 30 31 31 31 33 36
44 43 32 15 23 11 41 32 49 40 38 36 39 45 43 38 30 25 19 21 25 18 13 17 20 23 25 28 27 26 26 26 25 25 25 24 25 27 28 29 30 31 31 33
48 45 25 18 24 22 33 24 33 38 45 44 44 47 45 41 38 35 25 23 21 20 23 26 26 24 23 28 28 26 26 26 25 24 25 25 25 24 26 28 28 29 30 32
40 39 37 26 23 18 8 29 24 22 51 39 43 44 45 41 33 37 24 21 23 29 33 37 37 35 33 32 33 33 31 30 27 28 29 29 28 28 27 28 29 31 32 33
38 35 44 35 25 25 22 14 19 28 26 18 19 23 28 36 39 41 41 37 34 36 37 31 28 29 30 32 34 36 38 37 37 36 35 36 35 33 33 33 34 35 36 37
39 31 30 34 32 27 17 24 30 35 31 23 9 4 3 0 7 14 19 18 14 15 18 17 21 23 25 26 27 28 29 32 33 35 36 37 39 38 37 35 35 37 38 39
34 48 37 38 36 14 26 32 23 24 27 25 28 30 19 14 9 13 14 13 14 16 20 22 27 28 28 29 31 31 31 31 32 32 32 34 35 39 39 39 38 39 40 41
41 42 37 36 42 32 25 17 16 13 20 25 29 26 26 21 17 18 19 19 22 24 26 30 30 26 24 24 26 27 29 30 29 27 28 28 29 32 35 39 40 41 42 42
39 42 44 41 38 25 33 32 27 23 22 22 22 24 23 25 23 20 20 23 25 25 28 31 31 29 27 24 23 24 23 23 23 23 24 25 27 28 31 34 37 40 42 42
41 42 44 46 43 39 30 28 25 27 31 32 30 29 29 26 25 25 28 27 29 31 32 32 35 32 29 28 27 27 26 25 24 24 24 24 25 26 27 30 33 36 38 41

GFSCGP_700_spd_117.txt.gz
Wind_Speed
42 43 43 41 33 19 28 26 16 14 20 18 28 27 27 33 28 32 33 30 28 25 21 24 26 27 29 30 30 29 29 28 29 29 28 26 24 24 24 23 25 26 24 24
41 45 40 41 30 23 21 24 24 15 21 20 20 28 31 29 37 33 36 33 31 27 24 25 28 29 30 32 32 31 31 30 30 30 29 28 28 29 28 29 30 28 28 27
46 37 39 34 30 23 21 22 21 25 15 29 30 41 38 36 34 45 38 38 34 33 28 26 29 30 30 31 32 32 31 30 31 32 31 32 33 33 32 31 29 30 30 28
28 31 43 29 29 24 24 24 20 21 13 10 13 14 16 22 30 34 47 43 41 36 32 29 28 31 31 31 32 32 32 32 33 33 34 35 34 33 32 31 30 32 30 29
23 32 38 34 31 23 17 18 21 18 16 16 13 9 19 14 24 26 31 35 42 44 38 32 31 28 28 31 32 31 32 32 34 34 35 35 34 33 33 32 32 32 31 30
24 21 28 36 33 28 19 21 17 13 10 7 21 18 21 24 29 28 25 25 33 44 44 38 33 30 31 32 31 30 31 32 33 34 34 35 33 33 33 33 33 33 33 33
23 26 27 27 31 29 27 23 4 3 5 6 12 19 29 8 24 27 15 19 23 35 44 43 38 35 33 33 31 31 32 32 31 33 34 33 33 33 34 33 35 35 36 35
28 13 32 24 32 31 28 24 10 7 6 4 11 13 10 19 22 28 26 22 20 25 39 45 42 37 34 33 33 33 35 35 34 34 31 30 31 34 34 35 36 37 37 37
29 12 30 25 24 34 31 22 18 2 1 1 9 12 19 14 19 22 18 16 15 17 22 42 42 40 37 36 34 35 37 38 38 36 34 33 34 35 35 34 36 38 38 38
22 15 25 26 25 22 25 30 12 8 5 6 8 10 13 11 14 7 10 15 16 13 18 28 42 39 43 41 39 39 39 40 39 39 39 40 41 39 38 38 38 39 40 39
26 24 21 31 30 34 30 27 18 13 10 3 4 7 7 10 12 14 17 12 11 15 18 15 21 34 41 42 43 44 44 44 44 43 44 45 46 44 43 43 42 41 41 39
34 16 23 33 13 20 31 28 29 14 9 18 10 19 12 9 9 9 7 13 10 8 10 10 13 20 32 36 38 42 47 52 51 51 51 50 48 48 48 46 45 43 42 42
34 17 18 14 15 24 32 28 33 20 7 16 9 16 18 16 10 12 11 12 8 8 5 4 3 8 14 20 31 39 40 41 43 45 46 47 47 49 49 46 44 44 45 45
39 30 28 23 16 28 30 36 31 32 18 28 30 38 19 19 22 13 16 15 15 15 10 11 16 17 16 17 15 20 32 38 40 40 40 41 40 43 44 44 43 43 45 45
42 29 27 17 13 23 35 42 41 40 47 27 39 36 31 20 20 22 21 22 22 21 23 28 21 22 25 25 25 23 20 23 32 36 37 37 36 37 39 40 41 43 44 44
39 27 31 23 18 14 19 22 38 45 46 42 44 39 28 27 25 31 29 24 28 29 30 28 25 25 24 26 25 25 26 27 26 24 26 29 31 35 37 39 41 41 41 41
46 28 26 16 21 15 11 36 33 35 40 42 42 40 24 26 22 27 22 21 24 29 28 28 26 29 30 29 29 28 28 28 29 29 27 27 27 27 28 30 33 34 35 35
43 34 16 13 14 6 41 29 38 42 42 39 43 45 37 35 32 31 28 27 25 20 18 21 23 24 24 25 26 29 30 29 29 29 27 26 27 28 29 29 28 29 30 32
39 38 25 16 26 14 27 33 23 30 42 41 45 45 37 36 36 39 36 34 28 28 23 21 22 23 24 26 27 27 28 30 29 28 27 28 28 28 28 28 28 28 28 29
34 34 27 22 11 13 31 24 25 13 43 35 34 37 37 39 45 45 34 31 30 29 30 28 29 31 32 35 36 36 33 34 35 34 33 32 32 33 33 32 32 31 31 31
39 33 39 24 16 24 28 22 11 23 22 10 24 23 23 31 31 32 31 31 30 31 30 32 36 39 30 28 31 32 32 32 36 39 40 40 38 38 39 38 38 37 36 36
37 30 26 29 22 27 25 29 39 33 33 27 19 16 12 4 3 6 12 21 28 33 35 33 24 21 18 18 19 22 26 28 29 31 32 33 34 37 38 38 39 39 39 38
29 45 32 35 40 8 25 34 27 23 30 25 23 25 26 21 15 11 10 11 14 15 18 19 20 21 23 25 25 24 26 27 29 30 31 30 29 31 32 35 36 38 40 40
37 35 35 35 42 42 37 21 26 26 31 29 28 25 24 23 16 13 12 14 14 17 16 21 25 28 28 28 26 26 26 26 25 26 27 28 30 30 29 30 31 32 35 38
38 38 41 46 44 31 38 38 30 21 19 17 16 19 23 24 21 20 21 21 21 21 21 24 26 28 31 32 30 27 24 24 23 24 23 23 23 23 23 25 26 28 30 33
41 41 44 52 49 47 43 30 31 33 32 30 26 25 23 23 25 25 25 24 23 22 23 24 26 29 33 35 37 32 29 27 26 26 26 27 27 27 27 27 26 26 28 29

GFSCGP_700_spd_123.txt.gz
Wind_Speed
44 46 52 44 43 38 23 24 27 26 26 18 24 25 25 23 25 29 29 31 35 30 22 22 22 22 22 23 24 25 24 22 23 23 23 20 19 20 20 19 19 19 19 20
45 54 48 43 34 34 31 28 32 26 24 22 18 24 23 26 30 29 29 29 30 33 30 28 26 26 25 24 25 25 25 25 24 25 23 23 22 22 23 24 24 22 21 23
53 49 43 43 41 36 34 34 27 24 22 23 21 27 27 27 26 28 25 28 34 33 35 34 31 28 26 27 26 25 25 26 26 26 27 27 28 27 26 25 24 23 24 24
43 19 49 45 44 42 43 28 24 20 26 17 21 8 16 18 23 30 29 30 28 37 41 38 33 30 29 26 26 27 26 27 28 28 29 30 29 28 26 26 28 27 29 28
43 47 43 45 49 43 35 37 28 23 20 13 16 9 15 18 24 21 19 21 28 31 31 39 41 34 29 30 28 27 27 27 28 30 30 31 32 30 30 30 29 30 30 30
35 30 32 45 37 41 32 33 25 17 19 10 24 19 17 22 22 19 19 15 13 20 26 28 35 35 33 31 30 30 29 29 30 31 31 32 32 31 32 32 30 29 29 30
33 30 43 33 38 35 39 33 6 6 7 7 12 20 26 10 21 20 20 19 19 21 21 23 29 35 35 35 32 31 31 29 30 31 32 31 31 32 31 30 28 28 28 28
41 29 44 36 41 50 46 38 14 7 5 5 11 13 10 17 22 24 22 20 20 23 19 23 27 28 35 39 37 36 32 31 31 30 28 28 29 30 29 27 28 28 28 26
37 26 41 38 44 43 42 38 25 4 6 3 9 12 18 22 23 20 18 17 21 22 23 21 19 22 28 35 43 39 35 31 32 30 29 30 30 31 30 29 31 30 28 27
28 21 43 42 38 42 40 42 18 10 5 3 6 12 15 10 20 20 20 17 19 20 20 19 19 19 20 25 34 40 38 36 33 32 33 33 34 34 34 35 35 34 34 35
37 35 29 47 37 41 39 39 28 24 8 5 3 7 12 14 14 13 15 13 12 16 20 19 16 16 16 18 24 36 36 36 37 36 36 36 36 36 36 38 38 38 38 39
39 29 28 32 26 45 46 37 36 22 11 10 5 6 12 15 17 11 6 6 11 16 20 20 19 19 18 17 17 25 36 38 35 35 36 37 39 40 42 42 40 40 42 44
45 23 26 13 15 28 43 44 47 33 23 24 11 9 18 21 17 9 14 14 16 17 15 14 16 18 16 15 15 17 19 23 27 32 38 41 43 43 42 42 41 41 41 43
48 33 38 32 64 47 42 41 42 36 24 20 36 22 16 21 20 17 16 18 18 17 18 18 19 19 17 16 16 17 19 20 21 22 24 26 30 35 40 42 43 42 43 44
45 32 39 32 24 30 43 46 43 42 40 27 44 38 25 25 18 15 17 21 22 23 22 21 20 18 19 20 21 21 21 23 24 24 24 24 24 23 24 26 29 33 36 38
44 31 37 25 30 25 35 48 51 52 52 51 42 34 30 37 22 26 26 27 28 26 25 24 24 24 27 29 32 31 30 30 29 29 28 27 27 26 26 25 26 26 26 27
52 45 39 24 28 28 24 46 52 52 51 47 47 45 40 34 32 33 33 31 28 31 32 30 32 33 33 36 36 31 29 29 28 27 28 28 28 29 29 28 27 27 27 28
52 41 35 19 30 5 19 39 40 41 38 41 45 41 38 32 33 36 39 35 31 29 28 30 31 32 31 28 28 30 30 30 29 27 25 25 27 29 29 30 31 31 29 29
45 41 24 18 29 8 18 31 47 49 47 40 43 45 43 38 35 37 35 32 26 27 30 30 30 31 31 32 28 27 27 26 26 25 25 26 27 28 29 30 32 34 35 34
42 38 35 30 12 13 35 31 36 41 44 43 45 45 45 38 40 44 32 29 33 33 32 33 35 35 30 32 32 29 30 30 29 29 30 31 31 31 32 34 36 37 39 41
42 28 30 31 14 21 22 20 30 31 36 27 42 44 41 41 42 35 34 36 34 31 31 33 35 35 35 33 31 30 30 31 31 30 26 22 23 25 27 29 32 32 33 34
37 33 24 26 18 21 27 27 47 41 27 7 12 19 28 27 29 29 28 27 27 28 28 30 30 29 29 29 28 28 27 25 22 20 21 23 24 26 27 29 31 33 34 34
28 56 46 45 53 15 29 33 37 22 28 24 16 11 11 14 18 18 20 21 17 18 21 26 29 26 25 25 25 23 22 22 22 24 24 25 26 29 31 32 31 31 32 33
39 47 33 41 46 42 14 26 31 34 28 25 25 26 23 21 20 24 24 21 17 15 15 15 17 20 21 22 21 21 22 24 25 26 26 27 28 28 30 32 32 32 31 29
50 41 44 40 29 34 42 21 27 27 26 24 22 21 21 19 24 30 26 24 23 22 20 22 21 21 22 23 22 23 25 25 25 26 27 27 28 29 29 29 30 31 32 33
41 37 44 44 44 38 32 35 39 25 26 24 15 22 25 25 28 32 31 29 25 22 22 22 21 22 25 28 26 26 26 27 29 30 31 29 28 28 29 29 29 29 30 31